SAR-LUPE 2

Last updated on Thu Aug 20 2026 00:03:39 GMT+0000 (Coordinated Universal Time)

1 31797U 07030A 26231.62484675 .00047455 00000+0 61957-3 0 9998 2 31797 98.1073 344.3935 0007876 189.7651 170.3451 15.58509613 66795
UTC large
Height (km)
Speed (km/s)
/
Latitude / Longitude
Inclination (degrees)
Orbital Period (minutes)
Azimuth
Elevation
Range (km)
Doppler Factor

Next 0 passes for location: London (51.5072 / 0.1276)

No passes found over London.
SAR-LUPE 2